[Date Prev][Date Next][Thread Prev][Thread Next] - [Date Index][Thread Index][Author Index]
2 Line ISS Keps 12-16
- Subject: [sarex] 2 Line ISS Keps 12-16
- From: "Dave Larsen PhD" <doc@xxxxxxxxxxx>
- Date: Thu, 16 Dec 2004 02:51:26 -0800
ISS
1 25544U 98067A 04351.39978506 .00016123 00000-0 12825-3 0 3741
2 25544 51.6387 115.6537 0004426 112.0343 350.0795 15.71386363346948
----
Via the sarex mailing list at AMSAT.ORG courtesy of AMSAT-NA.
To unsubscribe, send "unsubscribe sarex" to Majordomo@amsat.org
AMSAT Home